User: anonymous   Login
Location: Unspecified
(0.0000°N, 0.0000°E)
Time: 06:25:04
(UTC+02:00)
Language:

Cosmos 1263 Rocket - Orbit

View from above orbital plane
View from above orbital plane
View from above satellite
View from above satellite

Ground track
Ground track

The orbit data is extracted from the following two-line orbital elements,

1 12389U 81033B   15149.46019881  .00129036  45902-5  39248-3 0  9990
2 12389 082.8519 123.7679 0064025 269.3416 196.4350 15.88415343763423
Epoch (UTC): 29 May 2015 11:02:41
Eccentricity: 0.0064025
inclination: 82.8519°
perigee height: 264 km
apogee height: 349 km
right ascension of ascending node: 123.7679°
argument of perigee: 269.3416°
revolutions per day: 15.88415343
mean anomaly at epoch: 196.4350°
orbit number at epoch: 76342

The dashed part of the orbit path shows where the satellite is in the earth's shadow,  

DLR